Погода в Илеке

Россия / Оренбургская область     51°31′38″N   53°23′22″E
темп.,
°C
ветер,
м/с
пор.,
м/с
влажн.,
%
обл.,
%
осадки,
мм/ч
давл.,
гПа
погр.,
м
5 марта, пт
пт523:000зюз101689100 0.9 1008868
02:00−2юз91879100 0.0 1008648
05:00−3юз91882100 0.0 1008581
08:00−3юз8178498 0.0 1007544
11:00−1юз10168998 0.0 1006656
14:000юз1017100100 1.7 1006890
17:00+1зюз91599100 3.4 1007676
20:00+1зюз713100100 0.8 1008537
6 марта, сб
сб623:00+1з61198100 2.6 1011559
02:00−3з4895100 0.1 1012157
05:00−6ссз2392100 0.1 101425
08:00−9ссз229075 0.0 101521
11:00−6св008761 0.0 101669
14:00−4ю0085100 0.0 1016256
17:00−3в1187100 0.0 1014277
20:00−5в2292100 0.0 101327
7 марта, вс
вс723:00−5св3597100 1.1 1011158
02:00−5св5996100 1.4 1008305
05:00−6ссв61095100 3.8 1006442
08:00−8с71292100 1.8 1006532
11:00−9ссз71182100 2.0 1010485
14:00−8сз69781 0.0 1013554
17:00−9зсз48830 0.0 1015446
20:00−13зюз34920 0.0 101653
8 марта, пн
пн823:00−14юз479410 0.0 1016107
02:00−12ююз5119569 0.0 1014256
05:00−8ююз7169185 0.1 1012574
08:00−5ююз101884100 0.0 1009825
11:00−4юз111693100 0.4 10091012
14:00−2зюз81188100 0.3 10111089
17:00−1юз71194100 0.8 1010919
20:00−2ююз81493100 0.3 1008872
9 марта, вт
вт923:00−1ююз101690100 0.7 1006966
02:00−1юз111894100 0.6 10061109
05:00−7з71380100 1.6 1009470
08:00−13зюз47910 0.0 1012133
11:00−11зюз57915 0.0 1014331
14:00−8зюз468962 0.0 1015442
17:00−8зюз359079 0.0 1016363
20:00−11юз2393100 0.0 101522